Back to catalog

STARLINK-5845

AliveCommunicationsVLEO
NORAD 57050·PAYLOAD·🇺🇸 United States

Launched Jun 22, 2023 from Vandenberg Space Force Base

Loading…

Next Passes (next 24 hours)

TLE

FreshSource: CelesTrak SupGP

Epoch: Sep 14, 2026, 13:24 UTC

1 57050C 23088C   26257.55881944  .00023858  00000+0  86428-3 0  2577
2 57050  43.0003 123.9112 0001335 230.5256 313.5586 15.27561259    18

Track STARLINK-5845 in real time with AllMySat

Download on the App Store